www.pogodaiklimat.ru
ПОГОДА в Фредерике
Время
и дата
23:10 19.05
23:30 19.05
23:50 19.05
00:10 20.05
00:30 20.05
00:45 20.05
01:10 20.05
01:30 20.05
01:50 20.05
02:10 20.05
02:30 20.05
02:50 20.05
03:10 20.05
03:30 20.05
03:50 20.05
04:10 20.05
04:30 20.05
04:50 20.05
05:47 20.05
06:47 20.05
07:47 20.05
08:10 20.05
08:47 20.05
09:47 20.05
10:20 20.05
10:47 20.05
11:47 20.05
12:47 20.05
13:47 20.05
14:47 20.05
15:47 20.05
16:47 20.05
17:47 20.05
18:47 20.05
19:47 20.05
21:10 20.05
21:30 20.05
21:50 20.05
22:10 20.05
22:30 20.05
22:50 20.05
23:10 20.05
23:30 20.05
23:50 20.05
00:10 21.05
00:30 21.05
00:50 21.05
01:10 21.05
Ветер
(напр.,м/с)
Видим. Явления Облачность Т
(С)
Тd
(С)
f
(%)
Тe
(С)
Тes
(С)
Комфортность P
(гПа)
Po
(гПа)
Тmin
(С)
Tmax
(С)
R
(мм)
R24
(мм)
S
(см)
штиль 0 16 км ясно 1005.8
штиль 0 16 км ясно 1005.4
штиль 0 16 км ясно 1005.4
штиль 0 16 км ясно 1005.4
штиль 0 16 км ясно 1005.1
штиль 0 16 км ясно 1005.1
штиль 0 16 км ясно 1005.1
штиль 0 11 км ясно 1005.1
штиль 0 16 км ясно 1004.8
штиль 0 16 км ясно 1005.1
штиль 0 5 км ясно 1004.8
штиль 0 800 м 8/8 60 м 1004.8
штиль 0 6 км 5/5 60 м 1004.8
штиль 0 2 км ?/? 1004.8
штиль 0 1 км 5/5 90 м 1004.8
штиль 0 800 м 8/8 90 м 1005.1
штиль 0 4 км 5/5 90 м 1005.1
штиль 0 3 км 8/8 180 м 1005.1
штиль 0 400 м туман 10/10 60 м +15.0 +15.0 100 +15 +15 1006.4
штиль 0 400 м туман 10/10 60 м +15.0 +15.0 100 +15 +15 1007.4
штиль 0 800 м туман 10/10 60 м +16.0 +16.0 100 +16 +16 1007.4
штиль 0 4 км дымка 10/10 120 м +16.0 +16.0 100 +16 +16 1007.8
штиль 0 6 км дымка 10/10 120 м +17.0 +17.0 100 +17 +17 1007.4
штиль 0 11 км 10/10 240 м +18.0 +17.0 94 +18 +18 1007.8
штиль 0 11 км 10/10 300 м +18.0 +17.0 94 +18 +18 1007.4
штиль 0 16 км 10/10 360 м +19.0 +19.0 100 +21 +21 комфорт 1007.4
штиль 0 16 км 5/5 420 м +21.0 +21.0 100 +26 +39 душно 1006.8
штиль 0 16 км 5/5 480 м +23.0 +18.0 73 +28 +42 душно 1006.4
штиль 0 16 км ясно +26.0 +17.0 58 +30 +56 опасность
солнечного
удара
1005.8
штиль 0 16 км ясно +27.0 +17.0 54 +31 +53 опасность
солнечного
удара
1005.1
штиль 0 16 км ясно +28.0 +16.0 48 +31 +48 душно 1004.4
штиль 0 16 км ясно +27.0 +16.0 51 +30 +41 душно 1004.1
штиль 0 16 км ясно +27.0 +16.0 51 +30 +36 душно 1004.1
штиль 0 16 км ясно +26.0 +17.0 58 +30 +32 душно 1004.4
штиль 0 16 км ясно +23.0 +17.0 69 +28 +28 душно 1004.8
штиль 0 16 км ясно 1005.4
штиль 0 16 км ясно +20.0 +20.0 100 +23 +23 комфорт 1005.1
штиль 0 16 км ясно +20.0 +20.0 100 +23 +23 комфорт 1005.1
штиль 0 16 км ясно +20.0 +20.0 100 +23 +23 комфорт 1005.1
штиль 0 16 км ясно +20.0 +20.0 100 +23 +23 комфорт 1005.1
штиль 0 16 км ясно 1005.1
штиль 0 16 км ясно 1005.1
штиль 0 16 км ясно 1005.1
штиль 0 16 км ясно 1005.1
штиль 0 16 км ясно 1005.1
штиль 0 11 км ясно 1005.1
штиль 0 8 км ясно 1005.1
штиль 0 11 км ясно 1005.1
Местоположение метеостанции Frederick Municipal Airport: широта 39.4200 долгота -77.3700 высота над уровнем моря 92 м.
В архиве по умолчанию представлена погода в Фредерике за последние 1-2 суток. Обновление информации о фактической погоде в базе происходит ежечасно! Архивные данные за месяц целиком и за предыдущие месяцы Вы можете получить, выбрав интересующий диапазон дат из раскрывающегося списка и нажав кнопку "Ввод!".
Внимание! Архив погоды МЕТАР в базе сайта по станциям, не включенным в климатический монитор, хранится не более 60 дней. Нет смысла пытаться выбрать более раннюю дату.
*Определитесь, кто Вы:
Внимание! Время в таблицах - местное (без учета летнего времени). Для получения всемирного времени необходимо вычесть поправку, которая равна -5 ч.
Смотрите также архив погоды в соседних городах и на ближайших метеорологических станциях:
Партнеры нашего сайта:      
Пояснения к столбцам:
  • Ветер - указаны скорость ветра в м/с - средняя за 10 мин, порывы в срок и между сроками (в фигурных скобках) и направление, откуда дует ветер: С - северный,
  • СВ - северо-восточный, В - восточный, ЮВ - юго-восточный, Ю - южный, ЮЗ - юго-западный, З - западный, СЗ - северо-западный.
  • Видимость - горизонтальная дальность видимости в метрах или километрах. При видимости от 1 до 10 км при отсутствии осадков обычно наблюдается дымка, при ухудшении видимости до 1 км и менее - туман. В сухую погоду видимость может ухудшаться дымом, пылью или мглою.
  • Явления - указаны атмосферные явления, наблюдавшиеся в срок или в последний час перед сроком; фигурными скобками обозначены явления, наблюдавшиеся между сроками (за 1-3 часа до срока); квадратными скобками обозначены град или гололедные отложения с указанием их диаметра в мм.
  • Облачность - указаны через наклонную черту общая и нижняя облачность в баллах и высота нижней границы облаков в метрах; квадратными скобками обозначены формы облаков: Ci - перистые, Cs - перисто-слоистые, Cc - перисто-кучевые, Ac - высококучевые, As - высокослоистые, Sc - слоисто-кучевые, Ns - слоисто-дождевые, Cu - кучевые, Cb - кучево-дождевые. Подробнее классификацию облаков см. в Атласе облаков (PDF).
  • T - Температура воздуха - температура, измеренная на высоте 2 м над землей.
  • Td - Температура точки росы - температура, при понижении до которой содержащийся в воздухе водяной пар достигнет насыщения.
  • f - Относительная влажность воздуха - влажноcть воздуха, измеренная на высоте 2 м над землей.
  • Te - Эффективная температура - температура, которую ощущает одетый по сезону человек в тени. Характеристика душности погоды. При расчете учитывается влияние влажности воздуха и скорости ветра на теплоощущения человека.
  • Tes - Эффективная температура на солнце - температура, которую ощущает человек, с поправкой на солнечный нагрев. Характеристика знойности погоды. Зависит от высоты солнца над горизонтом, облачности и скорости ветра. Ночью, в пасмурную погоду, а также при ветре 12 м/с и более поправка равна нулю.
  • P - Атмосферное давление - приведенное к уровню моря атмосферное давление.
  • Po - Атмосферное давление - измеренное на уровне метеостанции атмосферное давление.
  • Tmin - Минимальная температура - минимум температуры воздуха на высоте 2 м над землей.
  • Tmax - Максимальная температура - максимум температуры воздуха на высоте 2 м над землей.
  • R - Количество осадков - Количество выпавших осадков за период времени, мм. При наведении курсора мыши на число - период времени, за который выпало указанное количество осадков.
  • R24 - Количество осадков - Количество выпавших осадков за 24 часа, мм.
  • S - Снежный покров - Высота снежного покрова, см. При наведении курсора мыши на число - состояние снежного покрова и степень покрытия местности в баллах.